EZY24ME EGKK-LFMN

Flight info

Callsign EZY24ME
Flight time 1h 42m
Altitude 23000
Route BOGNA L612 XAMAB/N0430F330 UL612 VEULE DCT KOTAP DCT KETEX DCT KOTIS DCT KUKOR DCT UTUVA DCT LERGA DCT LIQID DCT LATAM DCT TUNUR DCT NISAR
Aircraft A320/M-SDE1E2E3FGHIRWXY/LB1

Departure

Time 2026-04-15 14:34
Airport London Gatwick Airport (EGKK)

Arrival

Time 2026-04-15 16:17
Airport Nice-Côte d'Azur Airport (LFMN)
Time Latitude Longitude Altitude Speed Heading
2026-04-15 14:00 51.15929 -0.17155 204 ft 0 kts 315°
2026-04-15 14:22 51.15927 -0.17151 208 ft 3 kts 315°
2026-04-15 14:22 51.15909 -0.17122 216 ft 4 kts 315°
2026-04-15 14:22 51.15890 -0.17093 216 ft 4 kts 296°
2026-04-15 14:23 51.15890 -0.17063 210 ft 4 kts 218°
2026-04-15 14:23 51.15906 -0.17045 216 ft 2 kts 213°
2026-04-15 14:23 51.15908 -0.17044 213 ft 0 kts 213°
2026-04-15 14:26 51.15904 -0.17047 204 ft 2 kts 213°
2026-04-15 14:26 51.15872 -0.17069 210 ft 7 kts 196°
2026-04-15 14:26 51.15825 -0.17078 204 ft 7 kts 183°
2026-04-15 14:27 51.15779 -0.17071 204 ft 7 kts 165°
2026-04-15 14:27 51.15734 -0.17054 209 ft 7 kts 167°
2026-04-15 14:27 51.15686 -0.17037 211 ft 7 kts 167°
2026-04-15 14:27 51.15644 -0.17067 208 ft 7 kts 237°
2026-04-15 14:28 51.15629 -0.17143 213 ft 7 kts 256°
2026-04-15 14:28 51.15616 -0.17226 215 ft 8 kts 256°
2026-04-15 14:28 51.15595 -0.17307 208 ft 8 kts 227°
2026-04-15 14:28 51.15545 -0.17311 212 ft 8 kts 167°
2026-04-15 14:29 51.15491 -0.17292 204 ft 8 kts 168°
2026-04-15 14:29 51.15436 -0.17273 204 ft 8 kts 168°
2026-04-15 14:29 51.15378 -0.17254 206 ft 8 kts 168°
2026-04-15 14:29 51.15320 -0.17235 208 ft 8 kts 168°
2026-04-15 14:30 51.15266 -0.17199 210 ft 9 kts 145°
2026-04-15 14:30 51.15210 -0.17132 210 ft 11 kts 139°
2026-04-15 14:30 51.15203 -0.17019 207 ft 10 kts 74°
2026-04-15 14:30 51.15213 -0.16956 204 ft 0 kts 78°
2026-04-15 14:31 51.15216 -0.16939 207 ft 3 kts 78°
2026-04-15 14:31 51.15222 -0.16893 208 ft 5 kts 79°
2026-04-15 14:31 51.15222 -0.16862 204 ft 0 kts 93°
2026-04-15 14:31 51.15222 -0.16861 204 ft 1 kts 93°
2026-04-15 14:32 51.15210 -0.16810 211 ft 6 kts 131°
2026-04-15 14:32 51.15156 -0.16782 211 ft 11 kts 170°
2026-04-15 14:32 51.15112 -0.16864 213 ft 9 kts 260°
2026-04-15 14:32 51.15110 -0.16878 202 ft 0 kts 258°
2026-04-15 14:33 51.15110 -0.16879 202 ft 0 kts 258°
2026-04-15 14:34 51.15091 -0.17021 207 ft 43 kts 258°
2026-04-15 14:34 51.14972 -0.17867 216 ft 109 kts 257°
2026-04-15 14:34 51.14755 -0.19299 364 ft 142 kts 250°
2026-04-15 14:34 51.14548 -0.20829 1083 ft 138 kts 252°
2026-04-15 14:35 51.14342 -0.22372 1577 ft 151 kts 251°
2026-04-15 14:35 51.14095 -0.24068 1949 ft 168 kts 252°
2026-04-15 14:35 51.13826 -0.25974 2351 ft 185 kts 252°
2026-04-15 14:35 51.13535 -0.28078 2759 ft 204 kts 253°
2026-04-15 14:36 51.13252 -0.30265 3648 ft 200 kts 253°
2026-04-15 14:36 51.12969 -0.32423 4499 ft 199 kts 253°
2026-04-15 14:36 51.12669 -0.34580 5298 ft 201 kts 252°
2026-04-15 14:36 51.12352 -0.36795 6004 ft 208 kts 252°
2026-04-15 14:37 51.12027 -0.39081 6763 ft 212 kts 252°
2026-04-15 14:37 51.11630 -0.41343 7523 ft 211 kts 237°
2026-04-15 14:37 51.10547 -0.42823 8300 ft 213 kts 200°
2026-04-15 14:37 51.09040 -0.42778 9101 ft 227 kts 172°
2026-04-15 14:38 51.07507 -0.42117 9949 ft 231 kts 173°
2026-04-15 14:38 51.05870 -0.41483 10286 ft 252 kts 177°
2026-04-15 14:38 51.04098 -0.41136 10870 ft 260 kts 181°
2026-04-15 14:38 51.02287 -0.40930 11632 ft 262 kts 182°
2026-04-15 14:39 51.00457 -0.40756 12423 ft 264 kts 183°
2026-04-15 14:39 50.98635 -0.40580 13174 ft 267 kts 183°
2026-04-15 14:39 50.96746 -0.40380 13932 ft 270 kts 182°
2026-04-15 14:39 50.94866 -0.40166 14597 ft 272 kts 182°
2026-04-15 14:40 50.92968 -0.39939 15269 ft 275 kts 181°
2026-04-15 14:40 50.91054 -0.39703 15935 ft 277 kts 181°
2026-04-15 14:40 50.89126 -0.39461 16614 ft 279 kts 181°
2026-04-15 14:40 50.87189 -0.39219 17274 ft 281 kts 181°
2026-04-15 14:41 50.85228 -0.38971 17933 ft 284 kts 179°
2026-04-15 14:41 50.83272 -0.38295 18563 ft 294 kts 166°
2026-04-15 14:41 50.81419 -0.36818 19148 ft 304 kts 154°
2026-04-15 14:41 50.79652 -0.34959 19763 ft 305 kts 154°
2026-04-15 14:42 50.77878 -0.33107 20379 ft 306 kts 155°
2026-04-15 14:42 50.76100 -0.31260 20980 ft 306 kts 155°
2026-04-15 14:42 50.74316 -0.29414 21574 ft 307 kts 155°
2026-04-15 14:42 50.72522 -0.27561 22158 ft 308 kts 156°
2026-04-15 14:43 50.70724 -0.25708 22739 ft 309 kts 156°
2026-04-15 14:43 50.68906 -0.23836 23091 ft 318 kts 156°
2026-04-15 14:43 50.67013 -0.21876 23237 ft 332 kts 155°
2026-04-15 14:43 50.65048 -0.19827 23372 ft 346 kts 155°
2026-04-15 14:44 50.63016 -0.17696 23620 ft 355 kts 155°
2026-04-15 14:44 50.60944 -0.15518 23978 ft 360 kts 155°
2026-04-15 14:44 50.58855 -0.13316 24384 ft 363 kts 155°
2026-04-15 14:44 50.56752 -0.11105 24803 ft 365 kts 155°
2026-04-15 14:45 50.54633 -0.08884 25208 ft 367 kts 155°
2026-04-15 14:45 50.52504 -0.06661 25604 ft 369 kts 155°
2026-04-15 14:45 50.50360 -0.04432 25993 ft 371 kts 155°
2026-04-15 14:45 50.48201 -0.02196 26371 ft 373 kts 155°
2026-04-15 14:46 50.46029 0.00058 26671 ft 376 kts 155°
2026-04-15 14:46 50.43837 0.02336 26972 ft 380 kts 155°
2026-04-15 14:46 50.41627 0.04630 27284 ft 383 kts 155°
2026-04-15 14:46 50.39393 0.06942 27577 ft 386 kts 155°
2026-04-15 14:47 50.37139 0.09267 27909 ft 389 kts 155°
2026-04-15 14:47 50.34872 0.11609 28252 ft 392 kts 155°
2026-04-15 14:47 50.32594 0.13965 28593 ft 394 kts 155°
2026-04-15 14:47 50.30303 0.16333 28918 ft 396 kts 155°
2026-04-15 14:48 50.27997 0.18707 29237 ft 398 kts 155°
2026-04-15 14:48 50.25679 0.21090 29565 ft 400 kts 155°
2026-04-15 14:48 50.23349 0.23483 29879 ft 402 kts 155°
2026-04-15 14:48 50.21003 0.25891 30173 ft 404 kts 155°
2026-04-15 14:49 50.18651 0.28302 30387 ft 406 kts 155°
2026-04-15 14:49 50.16279 0.30732 30575 ft 409 kts 155°
2026-04-15 14:49 50.13892 0.33184 30792 ft 412 kts 155°
2026-04-15 14:49 50.11497 0.35648 31018 ft 414 kts 155°
2026-04-15 14:50 50.09091 0.38124 31254 ft 415 kts 155°
2026-04-15 14:50 50.06676 0.40603 31512 ft 416 kts 155°
2026-04-15 14:50 50.05075 0.42243 31729 ft 415 kts 155°
2026-04-15 14:50 50.02665 0.44705 32049 ft 414 kts 155°
2026-04-15 14:51 49.99457 0.47979 32367 ft 415 kts 154°
2026-04-15 14:51 49.97839 0.49629 32528 ft 416 kts 154°
2026-04-15 14:51 49.95418 0.52093 32757 ft 417 kts 155°
2026-04-15 14:51 49.92983 0.54566 32969 ft 419 kts 155°
2026-04-15 14:52 49.90508 0.57076 33245 ft 419 kts 155°
2026-04-15 14:52 49.88069 0.59549 33547 ft 419 kts 155°
2026-04-15 14:52 49.85631 0.62022 33870 ft 418 kts 155°
2026-04-15 14:52 49.83214 0.64550 34170 ft 420 kts 153°
2026-04-15 14:53 49.80830 0.67167 34416 ft 421 kts 152°
2026-04-15 14:53 49.78462 0.69834 34642 ft 421 kts 152°
2026-04-15 14:53 49.76100 0.72514 34855 ft 422 kts 152°
2026-04-15 14:53 49.73730 0.75193 35033 ft 423 kts 152°
2026-04-15 14:54 49.71351 0.77857 35103 ft 420 kts 152°
2026-04-15 14:54 49.66629 0.83081 35119 ft 416 kts 153°
2026-04-15 14:55 49.61915 0.88245 35122 ft 415 kts 153°
2026-04-15 14:55 49.57206 0.93388 35125 ft 415 kts 152°
2026-04-15 14:56 49.52490 0.98524 35132 ft 415 kts 152°
2026-04-15 14:56 49.47774 1.03669 35113 ft 416 kts 152°
2026-04-15 14:57 49.43051 1.08825 35117 ft 417 kts 152°
2026-04-15 14:57 49.38316 1.13972 35120 ft 417 kts 152°
2026-04-15 14:58 49.33603 1.19066 35126 ft 417 kts 152°
2026-04-15 14:58 49.28825 1.24225 35109 ft 418 kts 152°
2026-04-15 14:59 49.24103 1.29322 35116 ft 418 kts 152°
2026-04-15 14:59 49.19305 1.34478 35126 ft 419 kts 152°
2026-04-15 15:00 49.14553 1.39574 35156 ft 421 kts 152°
2026-04-15 15:00 49.09764 1.44704 35154 ft 420 kts 152°
2026-04-15 15:01 49.04978 1.49812 35135 ft 420 kts 152°
2026-04-15 15:01 49.00149 1.54935 35139 ft 421 kts 152°
2026-04-15 15:02 48.95345 1.60040 35145 ft 421 kts 152°
2026-04-15 15:02 48.90538 1.65152 35146 ft 422 kts 152°
2026-04-15 15:03 48.85726 1.70250 35149 ft 422 kts 152°
2026-04-15 15:03 48.80909 1.75333 35136 ft 422 kts 152°
2026-04-15 15:04 48.76081 1.80409 35142 ft 422 kts 152°
2026-04-15 15:04 48.71249 1.85473 35153 ft 422 kts 152°
2026-04-15 15:05 48.66415 1.90536 35173 ft 423 kts 152°
2026-04-15 15:05 48.61544 1.95622 35164 ft 423 kts 152°
2026-04-15 15:06 48.54277 2.03198 35167 ft 423 kts 152°
2026-04-15 15:06 48.49426 2.08233 35168 ft 423 kts 152°
2026-04-15 15:07 48.44566 2.13266 35170 ft 424 kts 152°
2026-04-15 15:07 48.39711 2.18288 35160 ft 424 kts 152°
2026-04-15 15:08 48.34834 2.23310 35174 ft 425 kts 152°
2026-04-15 15:08 48.29937 2.28269 35179 ft 422 kts 156°
2026-04-15 15:09 48.24581 2.31493 35187 ft 408 kts 171°
2026-04-15 15:09 48.19072 2.33673 35166 ft 409 kts 171°
2026-04-15 15:10 48.13573 2.35866 35170 ft 409 kts 171°
2026-04-15 15:10 48.08103 2.38371 35189 ft 413 kts 167°
2026-04-15 15:11 48.02671 2.41189 35191 ft 413 kts 167°
2026-04-15 15:11 47.97233 2.43992 35185 ft 413 kts 167°
2026-04-15 15:12 47.91772 2.46710 35190 ft 414 kts 168°
2026-04-15 15:12 47.86301 2.49390 35193 ft 414 kts 168°
2026-04-15 15:13 47.80821 2.52079 35188 ft 415 kts 168°
2026-04-15 15:13 47.75335 2.54778 35167 ft 416 kts 167°
2026-04-15 15:14 47.69820 2.57488 35172 ft 418 kts 167°
2026-04-15 15:14 47.64290 2.60200 35177 ft 419 kts 167°
2026-04-15 15:15 47.58756 2.62910 35180 ft 419 kts 167°
2026-04-15 15:15 47.53215 2.65617 35175 ft 419 kts 167°
2026-04-15 15:16 47.47668 2.68317 35174 ft 420 kts 167°
2026-04-15 15:16 47.42113 2.71007 35179 ft 420 kts 167°
2026-04-15 15:17 47.36552 2.73692 35186 ft 420 kts 167°
2026-04-15 15:17 47.30996 2.76388 35165 ft 421 kts 167°
2026-04-15 15:18 47.25427 2.79074 35168 ft 421 kts 167°
2026-04-15 15:18 47.19855 2.81750 35173 ft 422 kts 167°
2026-04-15 15:19 47.14270 2.84430 35171 ft 422 kts 167°
2026-04-15 15:19 47.08688 2.87107 35171 ft 422 kts 167°
2026-04-15 15:20 47.03091 2.89781 35158 ft 424 kts 167°
2026-04-15 15:20 46.97474 2.92460 35166 ft 425 kts 167°
2026-04-15 15:21 46.91847 2.95138 35152 ft 426 kts 167°
2026-04-15 15:21 46.86203 2.97816 35159 ft 427 kts 167°
2026-04-15 15:22 46.80542 3.00499 35166 ft 428 kts 167°
2026-04-15 15:22 46.74874 3.03179 35171 ft 428 kts 167°
2026-04-15 15:23 46.69197 3.05873 35174 ft 429 kts 167°
2026-04-15 15:23 46.63489 3.08566 35180 ft 429 kts 167°
2026-04-15 15:24 46.57807 3.11221 35182 ft 429 kts 167°
2026-04-15 15:24 46.53090 3.13437 35183 ft 429 kts 166°
2026-04-15 15:25 46.47465 3.16389 35172 ft 431 kts 164°
2026-04-15 15:25 46.41863 3.19506 35174 ft 431 kts 163°
2026-04-15 15:26 46.36247 3.22591 35162 ft 432 kts 163°
2026-04-15 15:26 46.30604 3.25610 35157 ft 433 kts 164°
2026-04-15 15:27 46.24893 3.28640 35167 ft 435 kts 164°
2026-04-15 15:27 46.19206 3.31671 35168 ft 436 kts 164°
2026-04-15 15:28 46.13509 3.34707 35174 ft 437 kts 164°
2026-04-15 15:28 46.07806 3.37742 35161 ft 437 kts 163°
2026-04-15 15:29 46.02051 3.40804 35166 ft 438 kts 163°
2026-04-15 15:29 45.96325 3.43831 35175 ft 439 kts 164°
2026-04-15 15:30 45.90588 3.46855 35170 ft 439 kts 164°
2026-04-15 15:30 45.84841 3.49839 35177 ft 439 kts 165°
2026-04-15 15:31 45.79019 3.52438 35181 ft 438 kts 168°
2026-04-15 15:31 45.73161 3.54822 35184 ft 438 kts 168°
2026-04-15 15:32 45.67309 3.57260 35166 ft 439 kts 167°
2026-04-15 15:32 45.61455 3.59774 35165 ft 440 kts 167°
2026-04-15 15:33 45.55608 3.62308 35168 ft 440 kts 167°
2026-04-15 15:33 45.49741 3.64826 35167 ft 440 kts 167°
2026-04-15 15:34 45.43865 3.67320 35162 ft 441 kts 167°
2026-04-15 15:34 45.37980 3.69816 35166 ft 441 kts 167°
2026-04-15 15:35 45.32097 3.72312 35155 ft 442 kts 166°
2026-04-15 15:35 45.26530 3.76243 35166 ft 450 kts 145°
2026-04-15 15:36 45.22221 3.82727 35163 ft 457 kts 124°
2026-04-15 15:36 45.18794 3.90332 35168 ft 458 kts 123°
2026-04-15 15:37 45.15324 3.97917 35170 ft 459 kts 124°
2026-04-15 15:37 45.11840 4.05498 35164 ft 459 kts 124°
2026-04-15 15:38 45.08358 4.13084 35166 ft 460 kts 124°
2026-04-15 15:38 45.04869 4.20668 35161 ft 460 kts 124°
2026-04-15 15:39 45.00902 4.27732 35163 ft 459 kts 133°
2026-04-15 15:39 44.96575 4.34376 35145 ft 459 kts 133°
2026-04-15 15:40 44.92222 4.41065 35152 ft 460 kts 133°
2026-04-15 15:40 44.87895 4.47699 35137 ft 460 kts 133°
2026-04-15 15:41 44.83566 4.54330 35133 ft 460 kts 133°
2026-04-15 15:41 44.79224 4.60946 35137 ft 460 kts 133°
2026-04-15 15:42 44.74919 4.67500 35124 ft 460 kts 133°
2026-04-15 15:42 44.70567 4.74106 35137 ft 461 kts 133°
2026-04-15 15:43 44.66200 4.80708 35132 ft 461 kts 133°
2026-04-15 15:43 44.61855 4.87326 35132 ft 461 kts 131°
2026-04-15 15:44 44.57631 4.94092 35009 ft 461 kts 130°
2026-04-15 15:44 44.55544 4.97480 34763 ft 458 kts 130°
2026-04-15 15:44 44.53466 5.00843 34520 ft 456 kts 130°
2026-04-15 15:45 44.51384 5.04189 34292 ft 454 kts 130°
2026-04-15 15:45 44.49303 5.07510 34023 ft 452 kts 130°
2026-04-15 15:45 44.47230 5.10802 33730 ft 451 kts 130°
2026-04-15 15:45 44.45154 5.14089 33382 ft 449 kts 130°
2026-04-15 15:46 44.43088 5.17356 33044 ft 447 kts 130°
2026-04-15 15:46 44.41013 5.20637 32697 ft 444 kts 130°
2026-04-15 15:46 44.38998 5.23824 32372 ft 441 kts 130°
2026-04-15 15:46 44.36881 5.26914 32042 ft 439 kts 137°
2026-04-15 15:47 44.34513 5.29613 31519 ft 439 kts 141°
2026-04-15 15:47 44.32112 5.32240 31024 ft 437 kts 141°
2026-04-15 15:47 44.29722 5.34839 30538 ft 435 kts 141°
2026-04-15 15:47 44.27338 5.37424 30035 ft 433 kts 140°
2026-04-15 15:48 44.24962 5.39997 29498 ft 430 kts 140°
2026-04-15 15:48 44.22615 5.42541 29026 ft 426 kts 140°
2026-04-15 15:48 44.20283 5.45067 28549 ft 423 kts 140°
2026-04-15 15:48 44.17966 5.47574 28078 ft 419 kts 140°
2026-04-15 15:49 44.15670 5.50062 27591 ft 417 kts 140°
2026-04-15 15:49 44.13390 5.52532 27133 ft 414 kts 140°
2026-04-15 15:49 44.11122 5.54992 26682 ft 412 kts 140°
2026-04-15 15:49 44.08869 5.57432 26202 ft 409 kts 140°
2026-04-15 15:50 44.06626 5.59855 25743 ft 407 kts 140°
2026-04-15 15:50 44.04390 5.62267 25284 ft 405 kts 140°
2026-04-15 15:50 44.02175 5.64655 24822 ft 403 kts 140°
2026-04-15 15:50 43.99968 5.67037 24371 ft 401 kts 140°
2026-04-15 15:51 43.97770 5.69406 23925 ft 399 kts 140°
2026-04-15 15:51 43.95587 5.71755 23465 ft 397 kts 140°
2026-04-15 15:51 43.93409 5.74098 22982 ft 394 kts 140°
2026-04-15 15:51 43.91256 5.76410 22539 ft 390 kts 140°
2026-04-15 15:52 43.89116 5.78703 22099 ft 387 kts 140°
2026-04-15 15:52 43.86995 5.80973 21665 ft 384 kts 140°
2026-04-15 15:52 43.84891 5.83218 21237 ft 381 kts 140°
2026-04-15 15:52 43.82801 5.85445 20813 ft 378 kts 140°
2026-04-15 15:53 43.80726 5.87654 20386 ft 375 kts 140°
2026-04-15 15:53 43.78660 5.89858 19962 ft 373 kts 140°
2026-04-15 15:53 43.76612 5.92042 19545 ft 371 kts 140°
2026-04-15 15:53 43.74575 5.94210 19132 ft 369 kts 140°
2026-04-15 15:54 43.72546 5.96369 18723 ft 368 kts 140°
2026-04-15 15:54 43.70517 5.98527 18295 ft 367 kts 140°
2026-04-15 15:54 43.68502 6.00667 17849 ft 365 kts 140°
2026-04-15 15:54 43.66493 6.02794 17431 ft 362 kts 140°
2026-04-15 15:55 43.64504 6.04896 17038 ft 359 kts 140°
2026-04-15 15:55 43.62527 6.06983 16647 ft 357 kts 141°
2026-04-15 15:55 43.60651 6.09206 16239 ft 353 kts 130°
2026-04-15 15:55 43.59210 6.11903 15851 ft 347 kts 116°
2026-04-15 15:56 43.58252 6.14927 15483 ft 342 kts 108°
2026-04-15 15:56 43.57418 6.17989 15127 ft 340 kts 108°
2026-04-15 15:56 43.56587 6.21026 14769 ft 337 kts 108°
2026-04-15 15:56 43.55761 6.24039 14416 ft 335 kts 108°
2026-04-15 15:57 43.54936 6.27038 14056 ft 333 kts 109°
2026-04-15 15:57 43.54238 6.30047 13764 ft 326 kts 100°
2026-04-15 15:57 43.53780 6.33079 13499 ft 320 kts 99°
2026-04-15 15:57 43.53474 6.35099 13321 ft 316 kts 100°
2026-04-15 15:58 43.52886 6.38983 12973 ft 310 kts 99°
2026-04-15 15:58 43.52591 6.40944 12801 ft 308 kts 99°
2026-04-15 15:58 43.52161 6.43822 12540 ft 306 kts 99°
2026-04-15 15:58 43.51591 6.47619 12206 ft 304 kts 99°
2026-04-15 15:59 43.51162 6.50459 11954 ft 302 kts 99°
2026-04-15 15:59 43.50873 6.52369 11783 ft 301 kts 99°
2026-04-15 15:59 43.50447 6.55184 11539 ft 300 kts 99°
2026-04-15 15:59 43.50021 6.57991 11294 ft 299 kts 99°
2026-04-15 16:00 43.49594 6.60794 11051 ft 298 kts 99°
2026-04-15 16:00 43.49170 6.63583 10808 ft 297 kts 99°
2026-04-15 16:00 43.48747 6.66363 10565 ft 296 kts 99°
2026-04-15 16:00 43.48323 6.69138 10330 ft 296 kts 99°
2026-04-15 16:01 43.47898 6.71903 10101 ft 295 kts 99°
2026-04-15 16:01 43.47474 6.74655 9948 ft 293 kts 99°
2026-04-15 16:01 43.47057 6.77391 9816 ft 292 kts 99°
2026-04-15 16:01 43.46641 6.80127 9689 ft 292 kts 99°
2026-04-15 16:02 43.46224 6.82862 9556 ft 292 kts 99°
2026-04-15 16:02 43.45805 6.85591 9432 ft 291 kts 99°
2026-04-15 16:02 43.45384 6.88317 9301 ft 291 kts 99°
2026-04-15 16:02 43.44963 6.91037 9172 ft 290 kts 99°
2026-04-15 16:03 43.44543 6.93747 9044 ft 290 kts 99°
2026-04-15 16:03 43.44122 6.96459 8913 ft 290 kts 99°
2026-04-15 16:03 43.43695 6.99200 8782 ft 289 kts 99°
2026-04-15 16:03 43.43271 7.01909 8652 ft 289 kts 100°
2026-04-15 16:04 43.42848 7.04608 8520 ft 289 kts 100°
2026-04-15 16:04 43.42427 7.07301 8395 ft 288 kts 100°
2026-04-15 16:04 43.42100 7.10012 8269 ft 286 kts 91°
2026-04-15 16:04 43.42202 7.12726 8139 ft 284 kts 78°
2026-04-15 16:05 43.42686 7.15345 8013 ft 282 kts 72°
2026-04-15 16:05 43.43219 7.17942 7887 ft 282 kts 72°
2026-04-15 16:05 43.43748 7.20543 7756 ft 282 kts 72°
2026-04-15 16:05 43.44273 7.23135 7637 ft 282 kts 72°
2026-04-15 16:06 43.44798 7.25738 7498 ft 281 kts 72°
2026-04-15 16:06 43.45318 7.28333 7383 ft 281 kts 73°
2026-04-15 16:06 43.45836 7.30927 7261 ft 281 kts 73°
2026-04-15 16:06 43.46355 7.33520 7122 ft 281 kts 73°
2026-04-15 16:07 43.46871 7.36093 6782 ft 278 kts 73°
2026-04-15 16:07 43.47080 7.38719 6553 ft 279 kts 96°
2026-04-15 16:07 43.46247 7.43976 6302 ft 282 kts 103°
2026-04-15 16:08 43.45798 7.46600 6172 ft 281 kts 101°
2026-04-15 16:08 43.45358 7.49215 6044 ft 280 kts 103°
2026-04-15 16:08 43.44891 7.51819 5785 ft 281 kts 103°
2026-04-15 16:08 43.44435 7.54411 5402 ft 277 kts 100°
2026-04-15 16:09 43.44373 7.57030 5030 ft 273 kts 81°
2026-04-15 16:09 43.44947 7.59477 4664 ft 268 kts 60°
2026-04-15 16:09 43.46088 7.61447 4285 ft 263 kts 40°
2026-04-15 16:09 43.47643 7.62717 3906 ft 260 kts 21°
2026-04-15 16:10 43.49413 7.63159 3535 ft 260 kts
2026-04-15 16:10 43.51189 7.62728 3159 ft 262 kts 342°
2026-04-15 16:10 43.52749 7.61451 2969 ft 264 kts 321°
2026-04-15 16:10 43.53904 7.59463 2980 ft 271 kts 302°
2026-04-15 16:11 43.54818 7.57184 2969 ft 272 kts 300°
2026-04-15 16:11 43.55733 7.54897 2975 ft 272 kts 300°
2026-04-15 16:11 43.56622 7.52672 2968 ft 257 kts 300°
2026-04-15 16:11 43.57455 7.50586 2970 ft 239 kts 300°
2026-04-15 16:12 43.58280 7.48630 2976 ft 238 kts 307°
2026-04-15 16:12 43.59242 7.46764 2978 ft 238 kts 305°
2026-04-15 16:12 43.60193 7.44909 2998 ft 235 kts 304°
2026-04-15 16:12 43.61134 7.43066 3000 ft 235 kts 304°
2026-04-15 16:13 43.62085 7.41200 2645 ft 239 kts 304°
2026-04-15 16:13 43.63036 7.39331 2316 ft 237 kts 304°
2026-04-15 16:13 43.63975 7.37485 1997 ft 234 kts 304°
2026-04-15 16:13 43.64893 7.35685 1699 ft 222 kts 303°
2026-04-15 16:14 43.65755 7.34000 1402 ft 207 kts 303°
2026-04-15 16:14 43.66554 7.32440 1167 ft 191 kts 303°
2026-04-15 16:14 43.67269 7.31046 1142 ft 161 kts 303°
2026-04-15 16:14 43.67884 7.29830 1076 ft 148 kts 301°
2026-04-15 16:15 43.68416 7.28616 925 ft 144 kts 295°
2026-04-15 16:15 43.68815 7.27384 767 ft 138 kts 283°
2026-04-15 16:15 43.68858 7.26096 667 ft 133 kts 253°
2026-04-15 16:15 43.68437 7.24963 626 ft 135 kts 230°
2026-04-15 16:16 43.67803 7.23998 376 ft 133 kts 224°
2026-04-15 16:16 43.67119 7.23090 200 ft 132 kts 225°
2026-04-15 16:16 43.66479 7.22200 26 ft 125 kts 225°
2026-04-15 16:16 43.65998 7.21526 20 ft 57 kts 225°
2026-04-15 16:17 43.65782 7.21231 24 ft 39 kts 225°
2026-04-15 16:17 43.65635 7.21018 23 ft 16 kts 243°
2026-04-15 16:17 43.65685 7.20890 21 ft 18 kts 347°
2026-04-15 16:17 43.65719 7.20882 23 ft 2 kts 350°
2026-04-15 16:18 43.65730 7.20879 21 ft 1 kts 350°
2026-04-15 16:18 43.65757 7.20873 21 ft 5 kts 350°
2026-04-15 16:18 43.65787 7.20865 21 ft 4 kts 350°
2026-04-15 16:18 43.65811 7.20860 21 ft 3 kts 351°
2026-04-15 16:19 43.65849 7.20851 21 ft 7 kts 351°
2026-04-15 16:19 43.65894 7.20841 22 ft 6 kts 351°
2026-04-15 16:19 43.65934 7.20832 21 ft 6 kts 351°
2026-04-15 16:19 43.65981 7.20821 21 ft 12 kts 351°
2026-04-15 16:20 43.66094 7.20797 21 ft 17 kts 351°
2026-04-15 16:20 43.66205 7.20773 21 ft 15 kts 351°
2026-04-15 16:20 43.66295 7.20760 21 ft 8 kts 11°
2026-04-15 16:20 43.66309 7.20817 21 ft 6 kts 83°
2026-04-15 16:21 43.66316 7.20873 21 ft 6 kts 80°
2026-04-15 16:21 43.66322 7.20922 21 ft 5 kts 82°
2026-04-15 16:21 43.66310 7.20983 23 ft 9 kts 108°
2026-04-15 16:21 43.66311 7.21068 21 ft 9 kts 81°
2026-04-15 16:22 43.66335 7.21108 21 ft 5 kts 359°
2026-04-15 16:22 43.66371 7.21099 22 ft 5 kts 349°
2026-04-15 16:22 43.66402 7.21092 21 ft 2 kts 351°
2026-04-15 16:22 43.66410 7.21090 21 ft 0 kts 351°